TimeEST,TemperatureF,Dew PointF,Humidity,Sea Level PressureIn,VisibilityMPH,Wind Direction,Wind SpeedMPH,Gust SpeedMPH,PrecipitationIn,Events,Conditions,WindDirDegrees,DateUTC
12:53 AM,73.0,66.9,81,30.04,10.0,South,11.5,-,0.00,Rain,Light Rain,190,2013-01-17 05:53:00
1:53 AM,68.0,64.9,90,30.05,10.0,SSW,4.6,-,0.02,Rain,Light Rain,210,2013-01-17 06:53:00
2:09 AM,68.0,66.2,94,30.05,3.0,Calm,Calm,-,0.01,Rain,Light Rain,0,2013-01-17 07:09:00
2:20 AM,69.8,66.2,88,30.04,8.0,NNE,9.2,-,0.02,Rain,Light Rain,30,2013-01-17 07:20:00
2:53 AM,69.1,64.9,87,30.03,10.0,ENE,8.1,-,0.02,,Overcast,60,2013-01-17 07:53:00
3:53 AM,70.0,66.0,87,30.04,10.0,ESE,5.8,-,N/A,,Overcast,110,2013-01-17 08:53:00
4:53 AM,70.0,66.0,87,30.03,10.0,Calm,Calm,-,N/A,,Overcast,0,2013-01-17 09:53:00
5:00 AM,69.8,66.2,88,30.03,10.0,ESE,3.5,-,N/A,,Overcast,110,2013-01-17 10:00:00
5:16 AM,69.8,66.2,88,30.03,10.0,SE,5.8,-,N/A,,Overcast,140,2013-01-17 10:16:00
5:53 AM,70.0,66.9,90,30.04,10.0,SE,8.1,-,N/A,,Overcast,140,2013-01-17 10:53:00
6:14 AM,69.8,68.0,94,30.05,8.0,SE,5.8,-,0.00,Rain,Light Rain,130,2013-01-17 11:14:00
6:41 AM,71.6,68.0,88,30.05,10.0,ESE,9.2,-,0.06,,Overcast,120,2013-01-17 11:41:00
6:53 AM,70.0,66.9,90,30.05,10.0,SE,8.1,-,0.06,,Mostly Cloudy,130,2013-01-17 11:53:00
7:16 AM,69.8,66.2,88,30.06,10.0,ESE,5.8,-,N/A,,Mostly Cloudy,120,2013-01-17 12:16:00
7:53 AM,71.1,68.0,90,30.06,10.0,ESE,5.8,-,N/A,,Scattered Clouds,120,2013-01-17 12:53:00
8:34 AM,71.6,68.0,88,30.08,10.0,SE,3.5,-,N/A,,Mostly Cloudy,140,2013-01-17 13:34:00
8:53 AM,73.0,69.1,87,30.08,10.0,SE,3.5,-,N/A,,Mostly Cloudy,130,2013-01-17 13:53:00
9:15 AM,75.2,69.8,83,30.08,10.0,Calm,Calm,-,N/A,,Scattered Clouds,0,2013-01-17 14:15:00
9:53 AM,77.0,70.0,79,30.09,10.0,SSW,8.1,-,N/A,,Scattered Clouds,200,2013-01-17 14:53:00
10:53 AM,79.0,66.9,66,30.07,10.0,South,10.4,-,N/A,,Mostly Cloudy,190,2013-01-17 15:53:00
11:53 AM,80.1,66.0,62,30.04,10.0,South,10.4,-,N/A,,Mostly Cloudy,190,2013-01-17 16:53:00
12:53 PM,80.1,66.0,62,29.99,10.0,South,10.4,-,N/A,,Mostly Cloudy,170,2013-01-17 17:53:00
1:53 PM,79.0,68.0,69,29.97,10.0,SSE,11.5,-,N/A,,Mostly Cloudy,160,2013-01-17 18:53:00
2:32 PM,78.8,69.8,74,29.97,10.0,South,12.7,-,N/A,,Mostly Cloudy,170,2013-01-17 19:32:00
2:53 PM,78.1,64.9,64,29.97,10.0,South,16.1,-,N/A,,Mostly Cloudy,190,2013-01-17 19:53:00
2:59 PM,78.8,64.4,61,29.97,10.0,South,17.3,-,N/A,,Mostly Cloudy,190,2013-01-17 19:59:00
3:53 PM,78.1,64.9,64,29.97,10.0,South,11.5,-,N/A,,Mostly Cloudy,190,2013-01-17 20:53:00
4:53 PM,77.0,64.9,66,29.98,10.0,South,8.1,-,N/A,,Mostly Cloudy,190,2013-01-17 21:53:00
5:53 PM,75.9,64.9,69,29.98,10.0,SSW,9.2,-,N/A,,Mostly Cloudy,200,2013-01-17 22:53:00
6:19 PM,73.4,64.4,73,30.01,10.0,WNW,23.0,28.8,0.00,Rain,Light Rain,290,2013-01-17 23:19:00
6:53 PM,69.1,63.0,81,30.04,10.0,WNW,13.8,23.0,0.00,Rain,Light Rain,290,2013-01-17 23:53:00
7:53 PM,64.9,57.9,78,30.06,10.0,WNW,16.1,-,0.00,,Mostly Cloudy,290,2013-01-18 00:53:00
8:01 PM,64.4,57.2,77,30.07,10.0,West,16.1,-,N/A,,Scattered Clouds,280,2013-01-18 01:01:00
8:53 PM,63.0,55.0,75,30.08,10.0,WNW,15.0,21.9,N/A,,Scattered Clouds,300,2013-01-18 01:53:00
9:53 PM,62.1,55.0,78,30.08,10.0,WNW,12.7,-,N/A,,Partly Cloudy,290,2013-01-18 02:53:00
10:53 PM,61.0,55.0,81,30.08,10.0,WNW,9.2,-,N/A,,Partly Cloudy,290,2013-01-18 03:53:00
11:53 PM,61.0,52.0,72,30.09,10.0,WNW,10.4,-,N/A,,Partly Cloudy,290,2013-01-18 04:53:00